Location: Hartford
(41.7640°N, 72.6860°W)
Time: 03:26:22
(UTC-05:00)

ISS - Visible Passes

Search period start: 05 December 2016 00:00
Search period end: 15 December 2016 00:00
Orbit: 401 x 410 km, 51.6° (Epoch: 05 December)

Date Brightness Start Highest point End Pass type
(mag) Time Alt. Az. Time Alt. Az. Time Alt. Az.
05 Dec -1.9 17:37:42 10° W 17:40:39 29° NNW 17:42:12 20° NNE visible
06 Dec -0.8 18:23:28 10° NW 18:24:58 16° NNW 18:24:58 16° NNW visible
07 Dec -1.3 17:30:56 10° WNW 17:33:27 20° NNW 17:35:03 14° NNE visible
08 Dec -0.8 18:16:37 10° NW 18:17:47 14° NNW 18:17:47 14° NNW visible
09 Dec -1.1 17:24:11 10° NW 17:26:17 16° N 17:27:50 12° NNE visible
10 Dec -0.9 18:09:20 10° NNW 18:10:34 14° NNW 18:10:34 14° NNW visible
11 Dec -1.1 17:17:09 10° NW 17:19:08 15° N 17:20:38 12° NNE visible
12 Dec -1.3 18:01:42 10° NW 18:03:25 18° N 18:03:25 18° N visible
13 Dec -1.3 17:09:42 10° NNW 17:11:54 16° N 17:13:35 12° NE visible
13 Dec -0.4 18:45:50 10° NW 18:46:16 13° NW 18:46:16 13° NW visible
14 Dec -2.1 17:53:53 10° NW 17:56:31 28° NNE 17:56:31 28° NNE visible
